TimeCST,TemperatureF,Dew PointF,Humidity,Sea Level PressureIn,VisibilityMPH,Wind Direction,Wind SpeedMPH,Gust SpeedMPH,PrecipitationIn,Events,Conditions,WindDirDegrees,DateUTC
12:15 AM,21.2,17.6,86,30.08,3.0,NNE,9.2,-,N/A,,Overcast,30,2013-12-23 06:15:00
12:35 AM,21.2,15.8,80,30.08,5.0,North,6.9,-,N/A,,Overcast,10,2013-12-23 06:35:00
12:55 AM,19.4,15.8,86,30.08,7.0,North,4.6,-,N/A,,Overcast,350,2013-12-23 06:55:00
1:15 AM,19.4,17.6,93,30.09,4.0,North,5.8,-,N/A,,Overcast,360,2013-12-23 07:15:00
1:35 AM,19.4,17.6,93,30.10,5.0,North,10.4,-,N/A,,Overcast,360,2013-12-23 07:35:00
1:55 AM,19.4,15.8,86,30.11,5.0,North,10.4,-,N/A,,Overcast,360,2013-12-23 07:55:00
2:15 AM,19.4,15.8,86,30.11,3.0,North,8.1,-,N/A,,Overcast,360,2013-12-23 08:15:00
2:35 AM,19.4,15.8,86,30.11,4.0,North,11.5,-,N/A,,Overcast,10,2013-12-23 08:35:00
2:55 AM,19.4,15.8,86,30.12,5.0,North,11.5,-,N/A,,Overcast,360,2013-12-23 08:55:00
3:15 AM,19.4,15.8,86,30.13,5.0,North,8.1,-,N/A,,Overcast,350,2013-12-23 09:15:00
3:35 AM,19.4,15.8,86,30.13,5.0,North,9.2,-,N/A,,Overcast,350,2013-12-23 09:35:00
3:55 AM,19.4,15.8,86,30.13,5.0,North,10.4,-,N/A,,Overcast,350,2013-12-23 09:55:00
4:15 AM,19.4,14.0,80,30.14,5.0,North,10.4,-,N/A,,Overcast,350,2013-12-23 10:15:00
4:35 AM,19.4,14.0,80,30.14,5.0,North,10.4,-,N/A,,Overcast,350,2013-12-23 10:35:00
4:55 AM,17.6,14.0,86,30.15,8.0,North,11.5,-,N/A,,Overcast,350,2013-12-23 10:55:00
5:15 AM,17.6,14.0,86,30.15,10.0,North,11.5,-,N/A,,Mostly Cloudy,360,2013-12-23 11:15:00
5:35 AM,17.6,12.2,79,30.16,10.0,North,11.5,-,N/A,,Overcast,350,2013-12-23 11:35:00
5:55 AM,17.6,12.2,79,30.16,10.0,North,9.2,-,N/A,,Overcast,350,2013-12-23 11:55:00
6:15 AM,17.6,14.0,86,30.17,10.0,North,9.2,-,N/A,,Overcast,350,2013-12-23 12:15:00
6:35 AM,17.6,12.2,79,30.18,10.0,North,10.4,-,N/A,,Overcast,350,2013-12-23 12:35:00
6:55 AM,17.6,14.0,86,30.19,10.0,North,9.2,-,N/A,,Overcast,350,2013-12-23 12:55:00
7:15 AM,17.6,12.2,79,30.20,10.0,NNW,8.1,-,N/A,,Overcast,340,2013-12-23 13:15:00
7:35 AM,17.6,14.0,86,30.20,10.0,NNW,6.9,-,N/A,,Overcast,330,2013-12-23 13:35:00
7:55 AM,17.6,14.0,86,30.21,10.0,NW,8.1,-,N/A,,Overcast,320,2013-12-23 13:55:00
8:15 AM,17.6,12.2,79,30.22,6.0,NNW,8.1,-,N/A,,Overcast,330,2013-12-23 14:15:00
8:35 AM,17.6,14.0,86,30.22,10.0,NNW,8.1,-,N/A,,Overcast,330,2013-12-23 14:35:00
8:55 AM,17.6,12.2,79,30.23,10.0,NNW,8.1,-,N/A,,Overcast,340,2013-12-23 14:55:00
9:15 AM,17.6,12.2,79,30.23,10.0,NNW,8.1,-,N/A,,Overcast,340,2013-12-23 15:15:00
9:35 AM,17.6,12.2,79,30.24,10.0,NNW,5.8,-,N/A,,Overcast,340,2013-12-23 15:35:00
9:55 AM,17.6,12.2,79,30.25,10.0,North,5.8,-,N/A,,Overcast,350,2013-12-23 15:55:00
10:15 AM,17.6,10.4,73,30.25,10.0,NNW,9.2,-,N/A,,Overcast,340,2013-12-23 16:15:00
10:35 AM,17.6,12.2,79,30.25,10.0,North,8.1,-,N/A,,Overcast,360,2013-12-23 16:35:00
10:55 AM,17.6,12.2,79,30.25,10.0,North,8.1,-,N/A,,Overcast,10,2013-12-23 16:55:00
11:15 AM,19.4,12.2,74,30.24,10.0,North,10.4,-,N/A,,Overcast,10,2013-12-23 17:15:00
11:35 AM,19.4,10.4,68,30.24,10.0,North,9.2,-,N/A,,Overcast,10,2013-12-23 17:35:00
11:55 AM,19.4,10.4,68,30.24,10.0,North,10.4,-,N/A,,Overcast,10,2013-12-23 17:55:00
12:15 PM,19.4,8.6,63,30.24,10.0,North,9.2,-,N/A,,Overcast,350,2013-12-23 18:15:00
12:35 PM,19.4,8.6,63,30.23,10.0,North,10.4,-,N/A,,Overcast,360,2013-12-23 18:35:00
12:55 PM,19.4,8.6,63,30.23,10.0,North,10.4,-,N/A,,Overcast,360,2013-12-23 18:55:00
1:15 PM,19.4,8.6,63,30.24,10.0,North,10.4,-,N/A,,Overcast,360,2013-12-23 19:15:00
1:35 PM,19.4,8.6,63,30.24,10.0,North,9.2,-,N/A,,Overcast,360,2013-12-23 19:35:00
1:55 PM,19.4,10.4,68,30.24,10.0,North,11.5,-,N/A,,Overcast,350,2013-12-23 19:55:00
2:15 PM,19.4,10.4,68,30.25,10.0,North,10.4,-,N/A,,Overcast,350,2013-12-23 20:15:00
2:35 PM,19.4,12.2,74,30.25,10.0,North,9.2,-,N/A,,Overcast,10,2013-12-23 20:35:00
2:55 PM,19.4,12.2,74,30.26,10.0,North,10.4,-,N/A,,Overcast,360,2013-12-23 20:55:00
3:15 PM,19.4,14.0,80,30.26,10.0,North,8.1,-,N/A,,Overcast,10,2013-12-23 21:15:00
3:35 PM,19.4,12.2,74,30.27,10.0,North,8.1,-,N/A,,Overcast,10,2013-12-23 21:35:00
3:55 PM,17.6,12.2,79,30.28,10.0,North,6.9,-,N/A,,Overcast,10,2013-12-23 21:55:00
4:15 PM,17.6,12.2,79,30.28,10.0,North,5.8,-,N/A,,Overcast,10,2013-12-23 22:15:00
4:35 PM,17.6,10.4,73,30.28,7.0,North,5.8,-,N/A,,Overcast,10,2013-12-23 22:35:00
4:55 PM,17.6,12.2,79,30.29,4.0,North,5.8,-,N/A,,Overcast,10,2013-12-23 22:55:00
5:15 PM,17.6,14.0,86,30.29,4.0,North,4.6,-,N/A,,Overcast,10,2013-12-23 23:15:00
5:35 PM,17.6,14.0,86,30.30,3.0,North,4.6,-,N/A,,Overcast,10,2013-12-23 23:35:00
5:55 PM,17.6,14.0,86,30.30,8.0,NNE,5.8,-,N/A,,Overcast,20,2013-12-23 23:55:00
6:15 PM,17.6,14.0,86,30.30,5.0,NNE,6.9,-,N/A,,Overcast,20,2013-12-24 00:15:00
6:35 PM,17.6,12.2,79,30.31,7.0,North,6.9,-,N/A,,Overcast,10,2013-12-24 00:35:00
6:55 PM,17.6,12.2,79,30.31,10.0,NNE,8.1,-,N/A,,Overcast,20,2013-12-24 00:55:00
7:15 PM,17.6,10.4,73,30.32,10.0,NNE,10.4,-,N/A,,Overcast,20,2013-12-24 01:15:00
7:35 PM,17.6,8.6,68,30.33,10.0,North,9.2,-,N/A,,Overcast,10,2013-12-24 01:35:00
7:55 PM,17.6,8.6,68,30.33,10.0,North,12.7,-,N/A,,Overcast,10,2013-12-24 01:55:00
8:15 PM,15.8,6.8,68,30.33,10.0,North,12.7,-,N/A,,Mostly Cloudy,10,2013-12-24 02:15:00
8:35 PM,14.0,6.8,73,30.33,10.0,North,11.5,-,N/A,,Scattered Clouds,10,2013-12-24 02:35:00
8:55 PM,12.2,6.8,79,30.33,10.0,North,10.4,-,N/A,,Clear,10,2013-12-24 02:55:00
9:15 PM,12.2,5.0,73,30.33,10.0,North,9.2,-,N/A,,Clear,360,2013-12-24 03:15:00
9:35 PM,12.2,6.8,79,30.33,10.0,North,9.2,-,N/A,,Mostly Cloudy,360,2013-12-24 03:35:00
9:55 PM,12.2,6.8,79,30.33,10.0,North,10.4,-,N/A,,Overcast,10,2013-12-24 03:55:00
10:15 PM,14.0,8.6,79,30.34,10.0,North,10.4,-,N/A,,Overcast,10,2013-12-24 04:15:00
10:35 PM,14.0,6.8,73,30.34,10.0,North,9.2,-,N/A,,Overcast,360,2013-12-24 04:35:00
10:55 PM,14.0,6.8,73,30.34,10.0,North,9.2,-,N/A,,Overcast,10,2013-12-24 04:55:00
11:15 PM,14.0,5.0,67,30.34,10.0,North,8.1,-,N/A,,Overcast,360,2013-12-24 05:15:00
11:35 PM,12.2,6.8,79,30.34,10.0,North,8.1,-,N/A,,Overcast,350,2013-12-24 05:35:00
11:55 PM,12.2,6.8,79,30.35,10.0,NNW,9.2,-,N/A,,Overcast,340,2013-12-24 05:55:00